Weather History for Ogden Hill AFB, UT

Change the Weather History Date:

Sunday, December 8, 2013

  Actual Average Record
Temperature  
Mean Temperature 12 °F -  
Max Temperature 15 °F 36 °F 54 °F (2014)
Min Temperature 8 °F 23 °F 0 °F (2005)
Degree Days  
Heating Degree Days 54    
Moisture  
Dew Point 7 °F    
Average Humidity 79    
Maximum Humidity 86    
Minimum Humidity 62    
Precipitation  
Precipitation 0.02 in - - ()
Snow  
Snow 0.00 in - - ()
Snow Depth 5.00 in    
Sea Level Pressure  
Sea Level Pressure 30.05 in    
Wind  
Wind Speed 7 mph (West)    
Max Wind Speed 15 mph    
Max Gust Speed -    
Visibility 7 miles    
Events Snow    
Averages and records for this station are not official NWS values.
T = Trace of Precipitation, MM = Missing Value Source: NWS Daily Summary

Daily Weather History Graph

Daily Weather History Graph

Search for Another Location

Airport:

Trip Planner

Search our weather history database for the weather conditions in past years. The results will help you decide how hot, cold, wet, or windy it might be!

Date:

Astronomy

Dec. 08, 2013 Rise Set
Actual Time 7:40 AM MST 4:59 PM MST
Civil Twilight 7:09 AM MST 5:30 PM MST
Nautical Twilight 6:35 AM MST 6:04 PM MST
Astronomical Twilight 6:01 AM MST 6:37 PM MST
Moon 12:00 PM MST (12/8) 11:55 PM MST (12/8)
Length of Visible Light 10h 20m
Length of Day
9h 18m
Waxing Crescent, 40% of the Moon is Illuminated
Dec 8
Waxing Crescent
Dec 9
First Quarter
Dec 17
Full
Dec 25
Last Quarter
Jan 1
New

Hourly Weather History & Observations

Time (MST) Temp. Windchill Dew Point Humidity Pressure Visibility Wind Dir Wind Speed Gust Speed Precip Events Conditions
12:08 AM 14.0 °F 2.0 °F 10.4 °F 86% 29.82 in 2.5 mi NW 9.2 mph - N/A Snow Light Snow
12:23 AM 14.0 °F 0.5 °F 10.4 °F 86% 29.83 in 1.8 mi NW 11.5 mph - N/A Snow Light Snow
12:28 AM 14.0 °F -0.2 °F 10.4 °F 86% 29.83 in 1.8 mi NW 12.7 mph - N/A Snow Light Snow
12:38 AM 14.0 °F 1.2 °F 10.4 °F 86% 29.83 in 2.0 mi NW 10.4 mph - N/A Snow Light Snow
12:43 AM 14.0 °F 1.2 °F 10.4 °F 86% 29.84 in 2.5 mi NW 10.4 mph - N/A Snow Light Snow
12:48 AM 14.0 °F 1.2 °F 10.4 °F 86% 29.84 in 3.0 mi NW 10.4 mph - N/A Snow Light Snow
12:58 AM 13.8 °F 1.0 °F 9.7 °F 84% 29.97 in 3.0 mi NW 10.4 mph - 0.00 in Snow Light Snow
1:03 AM 14.0 °F 0.5 °F 8.6 °F 79% 29.84 in 2.5 mi NW 11.5 mph - N/A Snow Light Snow
1:08 AM 14.0 °F 0.5 °F 8.6 °F 79% 29.84 in 3.0 mi NW 11.5 mph - N/A Snow Light Snow
1:13 AM 14.0 °F -0.2 °F 8.6 °F 79% 29.84 in 4.0 mi NNW 12.7 mph - N/A Snow Light Snow
1:18 AM 14.0 °F -0.8 °F 8.6 °F 79% 29.84 in 5.0 mi NNW 13.8 mph - N/A Snow Light Snow
1:23 AM 14.0 °F 0.5 °F 8.6 °F 79% 29.85 in 6.0 mi NNW 11.5 mph - N/A Snow Light Snow
1:33 AM 14.0 °F 3.9 °F 8.6 °F 79% 29.86 in 10.0 mi NNW 6.9 mph - N/A Snow Light Snow
1:38 AM 14.0 °F 3.9 °F 8.6 °F 79% 29.86 in 8.0 mi NNW 6.9 mph - N/A Snow Light Snow
1:48 AM 14.0 °F -1.4 °F 8.6 °F 79% 29.86 in 5.0 mi NW 15.0 mph - N/A Snow Light Snow
1:58 AM 13.5 °F 0.5 °F 8.8 °F 82% 30.01 in 7.0 mi NNW 10.4 mph - 0.00 in Snow Light Snow
2:03 AM 14.0 °F -0.8 °F 8.6 °F 79% 29.87 in 6.0 mi NNW 13.8 mph - N/A Snow Light Snow
2:08 AM 14.0 °F 1.2 °F 8.6 °F 79% 29.88 in 6.0 mi NNW 10.4 mph - N/A Snow Light Snow
2:18 AM 14.0 °F 1.2 °F 8.6 °F 79% 29.89 in 4.0 mi NNW 10.4 mph - N/A Snow Light Snow
2:28 AM 12.2 °F -2.5 °F 8.6 °F 85% 29.89 in 5.0 mi NNW 12.7 mph - N/A Snow Light Snow
2:33 AM 12.2 °F -0.2 °F 8.6 °F 85% 29.90 in 5.0 mi NW 9.2 mph - N/A Snow Light Snow
2:38 AM 12.2 °F -0.2 °F 8.6 °F 85% 29.90 in 6.0 mi NNW 9.2 mph - N/A Snow Light Snow
2:43 AM 12.2 °F -0.2 °F 8.6 °F 85% 29.90 in 5.0 mi NW 9.2 mph - N/A Snow Light Snow
2:53 AM 12.2 °F 0.7 °F 8.6 °F 85% 29.91 in 7.0 mi NW 8.1 mph - N/A Snow Light Snow
2:58 AM 12.7 °F -0.4 °F 7.7 °F 80% 30.05 in 9.0 mi NW 10.4 mph - 0.00 in Snow Light Snow
3:08 AM 12.2 °F -0.2 °F 6.8 °F 79% 29.92 in 7.0 mi NNW 9.2 mph - N/A Snow Light Snow
3:18 AM 12.2 °F 0.7 °F 6.8 °F 79% 29.92 in 10.0 mi NW 8.1 mph - N/A Snow Light Snow
3:39 AM 12.2 °F 2.9 °F 6.8 °F 79% 29.93 in 10.0 mi WNW 5.8 mph - N/A   Overcast
3:58 AM 11.1 °F 3.1 °F 5.7 °F 79% 30.08 in 10.0 mi North 4.6 mph - 0.00 in   Overcast
4:18 AM 10.4 °F - 5.0 °F 79% 29.94 in 10.0 mi Variable 1.2 mph - N/A   Overcast
4:23 AM 10.4 °F - 5.0 °F 79% 29.94 in 10.0 mi Calm Calm - N/A   Overcast
4:35 AM 10.4 °F - 5.0 °F 79% 29.94 in 10.0 mi Calm Calm - N/A Snow Light Snow
4:40 AM 10.4 °F - 5.0 °F 79% 29.95 in 8.0 mi NNE 1.2 mph - N/A Snow Light Snow
4:55 AM 10.4 °F - 5.0 °F 79% 29.95 in 4.0 mi North - - N/A Snow Light Snow
4:58 AM 10.4 °F - 5.0 °F 79% 30.10 in 4.0 mi Calm Calm - 0.00 in Snow Light Snow
5:08 AM 10.4 °F - 5.0 °F 79% 29.96 in 5.0 mi Calm Calm - N/A Snow Light Snow
5:18 AM 10.4 °F - 5.0 °F 79% 29.97 in 8.0 mi Calm Calm - N/A Snow Light Snow
5:23 AM 10.4 °F - 5.0 °F 79% 29.96 in 9.0 mi NNW 1.2 mph - N/A Snow Light Snow
5:28 AM 10.4 °F - 5.0 °F 79% 29.96 in 10.0 mi Calm Calm - N/A Snow Light Snow
5:30 AM 10.4 °F - 5.0 °F 79% 29.96 in 10.0 mi Calm Calm - N/A   Overcast
5:33 AM 10.4 °F - 5.0 °F 79% 29.96 in 9.0 mi North 1.2 mph - N/A Snow Light Snow
5:38 AM 10.4 °F - 5.0 °F 79% 29.96 in 9.0 mi Calm Calm - N/A Snow Light Snow
5:43 AM 10.4 °F - 5.0 °F 79% 29.97 in 9.0 mi NNE 2.3 mph - N/A Snow Light Snow
5:48 AM 10.4 °F - 5.0 °F 79% 29.97 in 10.0 mi NNE 2.3 mph - N/A Snow Light Snow
5:58 AM 10.8 °F 4.5 °F 5.7 °F 80% 30.12 in 9.0 mi NNW 3.5 mph - 0.00 in Snow Light Snow
6:03 AM 10.4 °F 4.0 °F 5.0 °F 79% 29.98 in 9.0 mi NNW 3.5 mph - N/A Snow Light Snow
6:13 AM 10.4 °F 4.0 °F 5.0 °F 79% 29.99 in 8.0 mi NW 3.5 mph - N/A Snow Light Snow
6:18 AM 10.4 °F 2.2 °F 6.8 °F 85% 30.00 in 6.0 mi NW 4.6 mph - N/A Snow Light Snow
6:28 AM 10.4 °F 0.8 °F 6.8 °F 85% 30.00 in 7.0 mi NW 5.8 mph - N/A Snow Light Snow
6:33 AM 10.4 °F 0.8 °F 6.8 °F 85% 30.00 in 4.0 mi NW 5.8 mph - N/A Snow Light Snow
6:58 AM 9.9 °F 0.2 °F 5.7 °F 83% 30.16 in 6.0 mi NW 5.8 mph - 0.00 in Snow Light Snow
7:03 AM 8.6 °F 0.1 °F 5.0 °F 85% 30.02 in 8.0 mi NW 4.6 mph - N/A Snow Light Snow
7:04 AM 8.6 °F -1.3 °F 5.0 °F 85% 30.02 in 8.0 mi NW 5.8 mph - N/A Snow Light Snow
7:14 AM 8.6 °F 2.0 °F 5.0 °F 85% 30.02 in 5.0 mi NNW 3.5 mph - N/A Snow Light Snow
7:22 AM 8.6 °F -1.3 °F 5.0 °F 85% 30.03 in 8.0 mi NW 5.8 mph - N/A   Overcast
7:27 AM 8.6 °F 0.1 °F 5.0 °F 85% 30.03 in 10.0 mi NNW 4.6 mph - N/A   Overcast
7:42 AM 10.4 °F 2.2 °F 5.0 °F 79% 30.03 in 10.0 mi NNW 4.6 mph - N/A   Overcast
7:47 AM 10.4 °F 2.2 °F 5.0 °F 79% 30.03 in 10.0 mi NNW 4.6 mph - N/A   Overcast
7:52 AM 10.4 °F 4.0 °F 5.0 °F 79% 30.03 in 10.0 mi NNW 3.5 mph - N/A   Overcast
7:58 AM 9.5 °F 3.0 °F 5.5 °F 84% 30.18 in 10.0 mi North 3.5 mph - 0.00 in   Overcast
8:02 AM 8.6 °F 2.0 °F 5.0 °F 85% 30.04 in 10.0 mi North 3.5 mph - N/A Snow Light Snow
8:21 AM 8.6 °F - 5.0 °F 85% 30.05 in 10.0 mi NNW 2.3 mph - N/A   Overcast
8:26 AM 8.6 °F - 5.0 °F 85% 30.05 in 9.0 mi NNW 2.3 mph - N/A Snow Light Snow
8:41 AM 8.6 °F - 5.0 °F 85% 30.05 in 9.0 mi NW 2.3 mph - N/A   Overcast
8:44 AM 10.4 °F - 5.0 °F 79% 30.05 in 8.0 mi NW 2.3 mph - N/A Snow Light Snow
8:49 AM 10.4 °F - 5.0 °F 79% 30.05 in 5.0 mi NNW 2.3 mph - N/A Snow Light Snow
8:54 AM 10.4 °F - 6.8 °F 85% 30.05 in 5.0 mi NNW 2.3 mph - N/A Snow Light Snow
8:58 AM 10.0 °F 3.6 °F 6.1 °F 84% 30.21 in 7.0 mi NNW 3.5 mph - 0.00 in Snow Light Snow
8:59 AM 10.4 °F 2.2 °F 6.8 °F 85% 30.05 in 8.0 mi NW 4.6 mph - N/A   Overcast
9:01 AM 10.4 °F 2.2 °F 5.0 °F 79% 30.05 in 10.0 mi NW 4.6 mph - N/A Snow Light Snow
9:12 AM 10.4 °F 4.0 °F 6.8 °F 85% 30.06 in 6.0 mi WNW 3.5 mph - N/A   Mostly Cloudy
9:27 AM 10.4 °F 2.2 °F 6.8 °F 85% 30.08 in 10.0 mi NW 4.6 mph - N/A   Mostly Cloudy
9:37 AM 10.4 °F 4.0 °F 6.8 °F 85% 30.08 in 10.0 mi NW 3.5 mph - N/A   Overcast
9:42 AM 10.4 °F 4.0 °F 6.8 °F 85% 30.08 in 10.0 mi NNW 3.5 mph - N/A   Overcast
9:51 AM 10.4 °F 2.2 °F 6.8 °F 85% 30.08 in 10.0 mi NNW 4.6 mph - N/A Snow Light Snow
9:56 AM 12.2 °F 6.1 °F 6.8 °F 79% 30.09 in 4.0 mi NNW 3.5 mph - N/A Snow Light Snow
9:58 AM 12.2 °F - 6.8 °F 79% 30.23 in 4.0 mi NNW 2.3 mph - 0.00 in Snow Light Snow
10:03 AM 12.2 °F - 6.8 °F 79% 30.09 in 2.0 mi NW 2.3 mph - N/A Snow Light Snow
10:13 AM 12.2 °F 6.1 °F 6.8 °F 79% 30.09 in 2.0 mi NW 3.5 mph - N/A Snow Light Snow
10:23 AM 12.2 °F - 6.8 °F 79% 30.09 in 3.0 mi NNW 2.3 mph - N/A Snow Light Snow
10:26 AM 12.2 °F - 6.8 °F 79% 30.09 in 4.0 mi NW 1.2 mph - N/A Snow Light Snow
10:31 AM 12.2 °F - 6.8 °F 79% 30.09 in 3.0 mi NW 2.3 mph - N/A Snow Light Snow
10:36 AM 12.2 °F - 6.8 °F 79% 30.09 in 2.5 mi West 2.3 mph - N/A Snow Light Snow
10:41 AM 12.2 °F - 6.8 °F 79% 30.09 in 2.0 mi West 2.3 mph - N/A Snow Light Snow
10:46 AM 12.2 °F - 6.8 °F 79% 30.09 in 1.8 mi West 2.3 mph - N/A Snow Light Snow
10:51 AM 12.2 °F - 6.8 °F 79% 30.09 in 3.0 mi West 1.2 mph - N/A Snow Light Snow
10:56 AM 12.2 °F - 6.8 °F 79% 30.09 in 4.0 mi West 1.2 mph - N/A Snow Light Snow
10:58 AM 12.2 °F - 7.5 °F 82% 30.25 in 4.0 mi SW 1.2 mph - 0.00 in Snow Light Snow
11:03 AM 12.2 °F - 6.8 °F 79% 30.09 in 2.5 mi Calm Calm - N/A Snow Light Snow
11:13 AM 12.2 °F - 6.8 °F 79% 30.09 in 2.5 mi South 1.2 mph - N/A   Haze
11:18 AM 12.2 °F - 6.8 °F 79% 30.09 in 4.0 mi South 2.3 mph - N/A   Haze
11:23 AM 12.2 °F - 6.8 °F 79% 30.09 in 6.0 mi South 2.3 mph - N/A   Haze
11:27 AM 12.2 °F - 6.8 °F 79% 30.09 in 6.0 mi SSW 2.3 mph - N/A   Haze
11:42 AM 14.0 °F 8.2 °F 8.6 °F 79% 30.08 in 5.0 mi SSW 3.5 mph - N/A Snow Light Snow
11:47 AM 14.0 °F 5.1 °F 8.6 °F 79% 30.08 in 4.0 mi SSW 5.8 mph - N/A Snow Light Snow
11:52 AM 15.8 °F 6.1 °F 8.6 °F 73% 30.08 in 5.0 mi SSW 6.9 mph - N/A Snow Light Snow
11:55 AM 15.8 °F 7.2 °F 8.6 °F 73% 30.08 in 7.0 mi SSW 5.8 mph - N/A   Overcast
11:58 AM 15.8 °F 8.6 °F 8.6 °F 73% 30.22 in 8.0 mi SSW 4.6 mph - 0.00 in   Overcast
12:13 PM 14.0 °F 5.1 °F 8.6 °F 79% 30.07 in 7.0 mi SSW 5.8 mph - N/A   Overcast
12:15 PM 14.0 °F 5.1 °F 8.6 °F 79% 30.08 in 6.0 mi SSW 5.8 mph - N/A Snow Light Snow
12:29 PM 14.0 °F 2.0 °F 8.6 °F 79% 30.08 in 7.0 mi South 9.2 mph - N/A   Overcast
12:49 PM 15.8 °F 5.1 °F 8.6 °F 73% 30.08 in 10.0 mi South 8.1 mph - N/A   Overcast
12:58 PM 15.3 °F 5.4 °F 8.4 °F 74% 30.22 in 10.0 mi SSW 6.9 mph - 0.00 in   Overcast
1:08 PM 15.8 °F 6.1 °F 6.8 °F 68% 30.07 in 10.0 mi South 6.9 mph - N/A   Overcast
1:20 PM 15.8 °F 6.1 °F 6.8 °F 68% 30.07 in 10.0 mi SSW 6.9 mph - N/A Snow Light Snow
1:25 PM 15.8 °F 5.1 °F 6.8 °F 68% 30.07 in 10.0 mi South 8.1 mph - N/A Snow Light Snow
1:40 PM 15.8 °F 4.2 °F 5.0 °F 62% 30.07 in 10.0 mi SW 9.2 mph - N/A Snow Light Snow
1:41 PM 15.8 °F 4.2 °F 5.0 °F 62% 30.07 in 10.0 mi SW 9.2 mph - N/A   Scattered Clouds
1:51 PM 14.0 °F 2.9 °F 6.8 °F 73% 30.07 in 10.0 mi SW 8.1 mph - N/A   Mostly Cloudy
1:58 PM 15.4 °F 5.6 °F 6.4 °F 68% 30.21 in 10.0 mi SW 6.9 mph - 0.00 in   Mostly Cloudy
2:08 PM 15.8 °F 3.4 °F 5.0 °F 62% 30.06 in 10.0 mi SW 10.4 mph - N/A   Scattered Clouds
2:58 PM 14.0 °F 8.2 °F 4.3 °F 65% 30.22 in 10.0 mi WSW 3.5 mph - N/A   Partly Cloudy
3:18 PM 14.0 °F - 5.0 °F 67% 30.06 in 10.0 mi NW 2.3 mph - N/A   Mostly Cloudy
3:19 PM 14.0 °F - 5.0 °F 67% 30.06 in 10.0 mi NW 2.3 mph - N/A Snow Light Snow
3:29 PM 14.0 °F 8.2 °F 5.0 °F 67% 30.07 in 10.0 mi Variable 3.5 mph - N/A   Overcast
3:38 PM 14.0 °F 6.5 °F 5.0 °F 67% 30.07 in 10.0 mi SSE 4.6 mph - N/A Snow Light Snow
3:48 PM 12.2 °F 6.1 °F 6.8 °F 79% 30.07 in 10.0 mi South 3.5 mph - N/A Snow Light Snow
3:51 PM 12.2 °F - 5.0 °F 73% 30.07 in 10.0 mi Variable 2.3 mph - N/A   Mostly Cloudy
3:58 PM 11.3 °F - 5.2 °F 76% 30.25 in 10.0 mi South 2.3 mph - 0.00 in   Mostly Cloudy
4:03 PM 12.2 °F 6.1 °F 5.0 °F 73% 30.07 in 10.0 mi South 3.5 mph - N/A   Scattered Clouds
4:28 PM 12.2 °F 6.1 °F 6.8 °F 79% 30.08 in 10.0 mi SE 3.5 mph - N/A   Mostly Cloudy
4:38 PM 12.2 °F 4.3 °F 6.8 °F 79% 30.08 in 10.0 mi SE 4.6 mph - N/A   Scattered Clouds
4:48 PM 10.4 °F 2.2 °F 5.0 °F 79% 30.07 in 10.0 mi SE 4.6 mph - N/A   Mostly Cloudy
4:58 PM 10.8 °F 1.2 °F 5.2 °F 78% 30.25 in 10.0 mi SE 5.8 mph - N/A   Partly Cloudy
5:28 PM 12.2 °F 4.3 °F 5.0 °F 73% 30.07 in 10.0 mi ESE 4.6 mph - N/A   Mostly Cloudy
5:58 PM 9.1 °F -0.7 °F 2.3 °F 74% 30.25 in 10.0 mi SE 5.8 mph - N/A   Overcast
6:58 PM 12.4 °F 4.6 °F 3.7 °F 68% 30.25 in 10.0 mi SE 4.6 mph - N/A   Mostly Cloudy
7:08 PM 12.2 °F 2.9 °F 3.2 °F 67% 30.08 in 10.0 mi SE 5.8 mph - N/A   Scattered Clouds
7:38 PM 14.0 °F 5.1 °F 3.2 °F 62% 30.09 in 10.0 mi South 5.8 mph - N/A   Mostly Cloudy
7:39 PM 14.0 °F 3.9 °F 3.2 °F 62% 30.09 in 10.0 mi South 6.9 mph - N/A Snow Light Snow
7:58 PM 14.4 °F 2.4 °F 4.3 °F 64% 30.26 in 10.0 mi South 9.2 mph - 0.00 in Snow Light Snow
8:06 PM 14.0 °F 2.9 °F 5.0 °F 67% 30.09 in 10.0 mi SSW 8.1 mph - N/A   Mostly Cloudy
8:11 PM 14.0 °F 3.9 °F 5.0 °F 67% 30.10 in 10.0 mi SSW 6.9 mph - N/A   Mostly Cloudy
8:16 PM 14.0 °F 2.0 °F 5.0 °F 67% 30.10 in 10.0 mi SW 9.2 mph - N/A   Mostly Cloudy
8:26 PM 14.0 °F 2.9 °F 5.0 °F 67% 30.10 in 9.0 mi SSW 8.1 mph - N/A Snow Light Snow
8:51 PM 12.2 °F 1.7 °F 6.8 °F 79% 30.11 in 10.0 mi SSW 6.9 mph - N/A Snow Light Snow
8:58 PM 12.7 °F 3.6 °F 6.3 °F 75% 30.28 in 10.0 mi SW 5.8 mph - 0.00 in Snow Light Snow
9:03 PM 12.2 °F 4.3 °F 6.8 °F 79% 30.11 in 10.0 mi SSW 4.6 mph - N/A Snow Light Snow
9:13 PM 12.2 °F 2.9 °F 6.8 °F 79% 30.11 in 10.0 mi SSW 5.8 mph - N/A Snow Light Snow
9:18 PM 12.2 °F 4.3 °F 6.8 °F 79% 30.11 in 9.0 mi SSW 4.6 mph - N/A Snow Light Snow
9:28 PM 12.2 °F 2.9 °F 6.8 °F 79% 30.12 in 4.0 mi South 5.8 mph - N/A Snow Light Snow
9:38 PM 12.2 °F 2.9 °F 8.6 °F 85% 30.12 in 2.5 mi South 5.8 mph - N/A Snow Light Snow
9:53 PM 12.2 °F 2.9 °F 8.6 °F 85% 30.12 in 1.8 mi South 5.8 mph - N/A Snow Light Snow
9:58 PM 12.4 °F 4.6 °F 8.2 °F 83% 30.29 in 1.5 mi South 4.6 mph - 0.00 in Snow Light Snow
10:03 PM 12.2 °F 4.3 °F 8.6 °F 85% 30.12 in 2.0 mi SSW 4.6 mph - N/A Snow Light Snow
10:08 PM 12.2 °F 4.3 °F 8.6 °F 85% 30.13 in 2.5 mi SSW 4.6 mph - N/A Snow Light Snow
10:13 PM 12.2 °F - 8.6 °F 85% 30.13 in 2.0 mi SW 2.3 mph - N/A Snow Light Snow
10:15 PM 12.2 °F 6.1 °F 8.6 °F 85% 30.13 in 1.5 mi SSW 3.5 mph - N/A Snow Light Snow
10:20 PM 12.2 °F - 8.6 °F 85% 30.13 in 1.0 mi SSW 2.3 mph - N/A Snow Light Snow
10:25 PM 12.2 °F 4.3 °F 8.6 °F 85% 30.13 in 1.2 mi SSW 4.6 mph - N/A Snow Light Snow
10:30 PM 12.2 °F 4.3 °F 8.6 °F 85% 30.13 in 2.0 mi SSW 4.6 mph - N/A Snow Light Snow
10:35 PM 12.2 °F 4.3 °F 8.6 °F 85% 30.13 in 4.0 mi SSW 4.6 mph - N/A Snow Light Snow
10:40 PM 12.2 °F 2.9 °F 8.6 °F 85% 30.13 in 6.0 mi SSW 5.8 mph - N/A Snow Light Snow
10:55 PM 12.2 °F 6.1 °F 8.6 °F 85% 30.13 in 5.0 mi Variable 3.5 mph - N/A Snow Light Snow
10:58 PM 12.2 °F 4.3 °F 8.6 °F 85% 30.30 in 4.0 mi SW 4.6 mph - 0.02 in Snow Light Snow
11:03 PM 12.2 °F 6.1 °F 8.6 °F 85% 30.14 in 2.5 mi West 3.5 mph - N/A Snow Light Snow
11:22 PM 12.2 °F 6.1 °F 6.8 °F 79% 30.14 in 3.0 mi WNW 3.5 mph - N/A Snow Light Snow
11:37 PM 12.2 °F 4.3 °F 8.6 °F 85% 30.15 in 2.5 mi NW 4.6 mph - N/A Snow Light Snow
11:52 PM 10.4 °F -1.5 °F 6.8 °F 85% 30.16 in 3.0 mi NW 8.1 mph - N/A Snow Light Snow
11:57 PM 10.4 °F -1.5 °F 6.8 °F 85% 30.16 in 7.0 mi NW 8.1 mph - N/A Snow Light Snow
11:58 PM 10.4 °F -1.5 °F 6.8 °F 85% 30.32 in 7.0 mi NW 8.1 mph - 0.00 in Snow Light Snow